Tracking 35331 objects as of 14-Sep-2026
HD Live streaming from Space Station
objects crossing your sky now

FREGAT DEB


FREGAT DEB is no longer on orbit


NORAD ID: 45906
Int'l Code: 2011-037EB
Launch date: July 18, 2011
Source: Commonwealth of Independent States (former USSR) (CIS)
Launch site: TYURATAM MISSILE AND SPACE COMPLEX (TTMTR)
Decay date: 2021-05-05

Note: This is SATELLITE DEBRIS
Your satellite tracking list
Your tracking list is empty




NASA's NSSDC Master Catalog

Two Line Element Set (TLE):
1 45906U 11037EB  21124.01722809  .09881369  00000-0  82489-1 0  9991
2 45906  51.8491  68.2800 0131418  80.1969 281.3835 15.54155263 37387
Source of the keplerian elements: AFSPC